Precipitable_Water
0.22 0.23 0.23 0.23 0.22 0.23 0.24 0.24 0.23 0.22 0.21 0.19 0.18 0.17 0.16 0.15 0.15 0.18 0.19 0.22 0.21 0.17 0.17 0.20 0.21 0.20 0.19 0.20 0.21 0.22 0.22 0.21 0.21 0.19 0.19 0.20 0.20 0.19 0.21 0.21 0.20 0.19 0.20 0.24 0.26 0.29 0.25 0.33 0.45 0.55 0.64 0.73 0.83 1.07 1.12 1.14 1.20 1.27 1.33 1.35 1.30 1.32 1.49 1.63 1.57 1.56 1.54 1.47 1.35 1.34 1.29 1.22 1.22 1.18 1.19 1.23 1.28 1.28 1.30 1.29 1.25 1.23 1.24 1.21 1.18 1.15
0.26 0.26 0.27 0.26 0.26 0.26 0.27 0.27 0.26 0.24 0.22 0.20 0.19 0.18 0.18 0.18 0.18 0.21 0.21 0.25 0.25 0.21 0.21 0.24 0.24 0.24 0.25 0.25 0.25 0.25 0.23 0.21 0.22 0.21 0.21 0.21 0.21 0.22 0.22 0.20 0.19 0.20 0.22 0.23 0.25 0.30 0.28 0.26 0.40 0.50 0.57 0.63 0.67 0.85 0.90 0.93 0.95 1.05 1.27 1.24 1.23 1.25 1.32 1.46 1.52 1.52 1.53 1.50 1.38 1.27 1.25 1.24 1.24 1.21 1.15 1.13 1.20 1.23 1.27 1.29 1.25 1.22 1.23 1.22 1.20 1.17
0.27 0.25 0.27 0.29 0.32 0.31 0.32 0.30 0.29 0.27 0.26 0.26 0.23 0.23 0.22 0.25 0.29 0.28 0.29 0.29 0.32 0.29 0.26 0.28 0.26 0.26 0.27 0.27 0.28 0.28 0.26 0.25 0.23 0.22 0.21 0.21 0.20 0.19 0.18 0.19 0.20 0.20 0.21 0.21 0.24 0.26 0.29 0.29 0.31 0.48 0.53 0.58 0.65 0.81 0.82 0.85 0.94 0.99 1.16 1.19 1.16 1.20 1.17 1.25 1.48 1.53 1.49 1.51 1.48 1.40 1.34 1.35 1.31 1.36 1.30 1.23 1.24 1.25 1.23 1.25 1.26 1.25 1.25 1.23 1.21 1.20
0.25 0.27 0.29 0.33 0.33 0.30 0.31 0.32 0.30 0.29 0.29 0.27 0.28 0.26 0.25 0.29 0.25 0.24 0.29 0.31 0.34 0.30 0.26 0.28 0.25 0.25 0.27 0.30 0.29 0.27 0.26 0.27 0.27 0.25 0.23 0.23 0.23 0.23 0.22 0.22 0.21 0.22 0.22 0.23 0.23 0.25 0.26 0.30 0.31 0.35 0.49 0.59 0.69 0.72 0.79 0.83 0.87 0.93 1.06 1.15 1.18 1.15 1.22 1.26 1.32 1.43 1.48 1.46 1.47 1.47 1.43 1.44 1.39 1.29 1.33 1.33 1.33 1.29 1.26 1.23 1.26 1.27 1.25 1.24 1.24 1.22
0.24 0.28 0.33 0.33 0.34 0.32 0.29 0.31 0.29 0.28 0.27 0.32 0.29 0.26 0.26 0.28 0.29 0.27 0.26 0.29 0.30 0.30 0.32 0.30 0.26 0.25 0.29 0.26 0.26 0.29 0.31 0.30 0.29 0.29 0.31 0.32 0.30 0.30 0.31 0.31 0.29 0.27 0.25 0.25 0.26 0.28 0.29 0.28 0.30 0.30 0.29 0.46 0.62 0.69 0.69 0.78 0.86 0.85 0.96 1.09 1.18 1.16 1.19 1.24 1.28 1.29 1.37 1.43 1.43 1.46 1.48 1.47 1.42 1.40 1.35 1.32 1.30 1.29 1.24 1.23 1.23 1.23 1.26 1.25 1.25 1.23
0.29 0.32 0.34 0.32 0.32 0.31 0.30 0.30 0.29 0.27 0.25 0.28 0.32 0.30 0.30 0.30 0.29 0.30 0.31 0.30 0.28 0.27 0.32 0.31 0.22 0.23 0.28 0.27 0.28 0.28 0.30 0.30 0.31 0.33 0.33 0.33 0.34 0.35 0.34 0.33 0.35 0.33 0.32 0.29 0.28 0.30 0.32 0.32 0.30 0.31 0.32 0.34 0.55 0.69 0.77 0.77 0.85 0.90 0.97 1.08 1.11 1.20 1.20 1.19 1.24 1.27 1.24 1.32 1.35 1.37 1.32 1.24 1.24 1.22 1.23 1.19 1.18 1.19 1.17 1.16 1.22 1.27 1.29 1.24 1.24 1.25
0.28 0.34 0.33 0.32 0.32 0.32 0.32 0.32 0.34 0.34 0.29 0.29 0.32 0.36 0.35 0.34 0.33 0.33 0.32 0.31 0.26 0.25 0.33 0.35 0.22 0.21 0.29 0.31 0.31 0.30 0.29 0.29 0.32 0.33 0.35 0.36 0.37 0.37 0.36 0.36 0.36 0.34 0.33 0.32 0.32 0.33 0.32 0.31 0.29 0.29 0.31 0.29 0.32 0.63 0.78 0.83 0.84 0.89 0.98 1.07 1.11 1.13 1.18 1.22 1.24 1.27 1.25 1.21 1.30 1.34 1.33 1.27 1.20 1.15 1.23 1.30 1.30 1.26 1.27 1.28 1.24 1.25 1.28 1.28 1.26 1.28
0.34 0.33 0.35 0.36 0.35 0.33 0.33 0.33 0.37 0.37 0.31 0.30 0.38 0.38 0.36 0.35 0.33 0.33 0.33 0.31 0.29 0.34 0.33 0.34 0.29 0.22 0.23 0.30 0.30 0.31 0.29 0.30 0.31 0.33 0.36 0.38 0.38 0.38 0.39 0.39 0.38 0.37 0.37 0.34 0.33 0.34 0.35 0.35 0.33 0.31 0.32 0.31 0.29 0.35 0.66 0.82 0.82 0.87 0.93 1.04 1.09 1.13 1.14 1.18 1.21 1.25 1.26 1.23 1.24 1.24 1.28 1.33 1.27 1.23 1.21 1.29 1.31 1.31 1.30 1.29 1.28 1.28 1.28 1.30 1.31 1.31
0.34 0.32 0.34 0.34 0.34 0.33 0.32 0.35 0.37 0.38 0.33 0.32 0.36 0.36 0.34 0.35 0.34 0.33 0.32 0.31 0.31 0.28 0.25 0.29 0.30 0.24 0.25 0.29 0.32 0.30 0.29 0.30 0.33 0.35 0.38 0.37 0.37 0.39 0.40 0.41 0.40 0.40 0.40 0.39 0.36 0.35 0.35 0.35 0.36 0.36 0.36 0.37 0.34 0.34 0.44 0.70 0.76 0.85 0.94 1.01 1.11 1.13 1.13 1.16 1.18 1.16 1.21 1.23 1.23 1.23 1.22 1.25 1.30 1.34 1.32 1.32 1.36 1.33 1.36 1.31 1.33 1.34 1.33 1.32 1.32 1.33
0.35 0.36 0.38 0.38 0.34 0.31 0.36 0.37 0.38 0.37 0.32 0.36 0.38 0.38 0.37 0.37 0.35 0.33 0.31 0.31 0.30 0.25 0.24 0.26 0.27 0.22 0.21 0.29 0.29 0.33 0.33 0.32 0.34 0.36 0.38 0.39 0.39 0.40 0.41 0.42 0.42 0.42 0.42 0.43 0.42 0.39 0.38 0.38 0.39 0.40 0.42 0.42 0.40 0.37 0.37 0.48 0.74 0.79 0.86 0.94 1.03 1.11 1.18 1.19 1.16 1.12 1.13 1.18 1.20 1.19 1.19 1.19 1.28 1.35 1.42 1.39 1.35 1.35 1.38 1.31 1.31 1.35 1.37 1.37 1.34 1.33
0.37 0.44 0.44 0.39 0.36 0.38 0.39 0.40 0.38 0.38 0.37 0.42 0.38 0.34 0.34 0.34 0.32 0.32 0.30 0.27 0.28 0.23 0.24 0.27 0.27 0.25 0.21 0.28 0.32 0.31 0.33 0.35 0.36 0.39 0.41 0.42 0.43 0.43 0.44 0.43 0.44 0.44 0.44 0.44 0.44 0.43 0.41 0.42 0.41 0.40 0.40 0.39 0.41 0.43 0.41 0.40 0.55 0.73 0.79 0.84 0.94 1.08 1.17 1.22 1.18 1.12 1.10 1.12 1.16 1.15 1.15 1.25 1.26 1.34 1.42 1.40 1.35 1.37 1.37 1.31 1.31 1.32 1.36 1.41 1.39 1.40
0.37 0.39 0.39 0.41 0.46 0.44 0.42 0.36 0.40 0.39 0.39 0.37 0.33 0.31 0.33 0.30 0.31 0.31 0.29 0.29 0.21 0.21 0.26 0.27 0.27 0.28 0.20 0.28 0.35 0.38 0.40 0.40 0.39 0.39 0.39 0.42 0.43 0.45 0.45 0.44 0.44 0.45 0.46 0.46 0.46 0.45 0.44 0.42 0.40 0.39 0.38 0.39 0.39 0.40 0.41 0.41 0.43 0.58 0.72 0.78 0.82 0.96 1.08 1.18 1.23 1.18 1.13 1.10 1.09 1.15 1.20 1.13 1.24 1.32 1.37 1.38 1.35 1.36 1.34 1.32 1.30 1.35 1.37 1.41 1.45 1.48
0.33 0.34 0.39 0.43 0.47 0.41 0.36 0.33 0.34 0.37 0.36 0.34 0.30 0.28 0.24 0.19 0.21 0.18 0.21 0.19 0.19 0.18 0.24 0.28 0.29 0.26 0.28 0.33 0.35 0.38 0.40 0.42 0.43 0.45 0.46 0.46 0.47 0.47 0.48 0.49 0.47 0.47 0.48 0.48 0.47 0.47 0.46 0.44 0.42 0.40 0.39 0.38 0.38 0.38 0.38 0.40 0.42 0.44 0.59 0.68 0.72 0.76 0.93 1.09 1.18 1.19 1.13 1.08 1.02 1.05 1.12 1.20 1.20 1.24 1.39 1.37 1.35 1.33 1.27 1.28 1.29 1.33 1.36 1.42 1.43 1.45
0.32 0.38 0.38 0.40 0.43 0.44 0.38 0.29 0.29 0.29 0.32 0.31 0.28 0.25 0.20 0.16 0.16 0.14 0.17 0.20 0.21 0.25 0.27 0.26 0.31 0.26 0.30 0.37 0.39 0.39 0.42 0.46 0.47 0.49 0.50 0.50 0.49 0.49 0.50 0.52 0.52 0.50 0.50 0.50 0.49 0.48 0.48 0.47 0.45 0.44 0.42 0.41 0.40 0.39 0.39 0.39 0.41 0.45 0.47 0.60 0.66 0.71 0.82 0.97 1.09 1.15 1.15 1.16 1.13 1.09 1.07 1.09 1.13 1.20 1.39 1.43 1.34 1.29 1.28 1.30 1.27 1.30 1.37 1.41 1.41 1.41
0.25 0.28 0.34 0.37 0.32 0.43 0.38 0.35 0.34 0.32 0.31 0.32 0.34 0.31 0.25 0.22 0.18 0.15 0.16 0.15 0.16 0.20 0.25 0.28 0.25 0.22 0.24 0.32 0.40 0.42 0.46 0.49 0.52 0.52 0.52 0.53 0.53 0.53 0.53 0.53 0.55 0.55 0.53 0.52 0.50 0.49 0.49 0.49 0.48 0.46 0.46 0.45 0.43 0.41 0.41 0.41 0.40 0.40 0.44 0.48 0.58 0.67 0.72 0.78 0.92 1.07 1.12 1.18 1.21 1.15 1.06 1.07 1.04 1.12 1.32 1.43 1.39 1.32 1.33 1.36 1.29 1.37 1.43 1.41 1.44 1.45
0.26 0.27 0.36 0.43 0.41 0.43 0.37 0.38 0.38 0.37 0.31 0.32 0.33 0.33 0.27 0.24 0.32 0.20 0.21 0.22 0.21 0.22 0.21 0.23 0.24 0.28 0.30 0.40 0.44 0.47 0.48 0.48 0.49 0.50 0.51 0.51 0.53 0.53 0.52 0.53 0.54 0.54 0.55 0.54 0.52 0.50 0.50 0.50 0.50 0.49 0.47 0.47 0.46 0.44 0.43 0.42 0.41 0.41 0.40 0.42 0.53 0.59 0.70 0.73 0.78 0.95 1.12 1.20 1.19 1.13 1.09 1.05 1.10 1.12 1.23 1.30 1.40 1.46 1.47 1.44 1.35 1.38 1.42 1.45 1.51 1.49
0.30 0.27 0.38 0.42 0.45 0.41 0.39 0.41 0.36 0.37 0.23 0.29 0.29 0.26 0.30 0.40 0.34 0.27 0.27 0.27 0.28 0.28 0.19 0.27 0.26 0.30 0.35 0.43 0.44 0.45 0.44 0.45 0.48 0.49 0.50 0.50 0.52 0.54 0.53 0.52 0.53 0.54 0.54 0.55 0.54 0.53 0.52 0.51 0.51 0.51 0.49 0.48 0.48 0.46 0.44 0.43 0.43 0.41 0.40 0.39 0.41 0.52 0.61 0.70 0.75 0.80 1.00 1.19 1.20 1.13 1.10 1.11 1.21 1.23 1.23 1.28 1.34 1.41 1.48 1.51 1.45 1.39 1.40 1.44 1.50 1.46
0.30 0.29 0.38 0.37 0.38 0.42 0.45 0.45 0.42 0.39 0.38 0.32 0.25 0.30 0.42 0.44 0.39 0.29 0.20 0.22 0.21 0.17 0.20 0.25 0.22 0.26 0.26 0.25 0.43 0.41 0.41 0.42 0.45 0.48 0.50 0.51 0.53 0.53 0.54 0.55 0.56 0.56 0.57 0.57 0.56 0.56 0.56 0.54 0.53 0.52 0.51 0.50 0.49 0.49 0.47 0.45 0.45 0.44 0.43 0.41 0.40 0.44 0.52 0.61 0.71 0.75 0.81 1.02 1.19 1.21 1.17 1.16 1.27 1.32 1.33 1.34 1.38 1.44 1.48 1.48 1.53 1.48 1.40 1.42 1.48 1.47
0.38 0.28 0.35 0.38 0.38 0.40 0.45 0.45 0.40 0.44 0.43 0.34 0.31 0.40 0.31 0.23 0.25 0.27 0.26 0.17 0.18 0.17 0.19 0.22 0.23 0.26 0.28 0.30 0.35 0.35 0.39 0.41 0.45 0.49 0.48 0.48 0.49 0.51 0.53 0.54 0.57 0.59 0.59 0.57 0.56 0.54 0.54 0.55 0.55 0.53 0.51 0.51 0.50 0.51 0.50 0.48 0.47 0.46 0.45 0.44 0.43 0.42 0.49 0.57 0.68 0.76 0.78 0.83 0.99 1.20 1.20 1.17 1.23 1.28 1.31 1.35 1.39 1.48 1.48 1.49 1.54 1.49 1.43 1.45 1.52 1.50
0.39 0.28 0.33 0.40 0.38 0.39 0.42 0.39 0.29 0.34 0.43 0.44 0.43 0.35 0.39 0.35 0.27 0.24 0.24 0.27 0.26 0.19 0.18 0.18 0.22 0.21 0.34 0.33 0.36 0.38 0.42 0.45 0.46 0.48 0.48 0.48 0.51 0.52 0.51 0.53 0.56 0.58 0.60 0.62 0.60 0.56 0.55 0.56 0.58 0.57 0.54 0.51 0.50 0.50 0.50 0.50 0.49 0.46 0.46 0.44 0.44 0.47 0.52 0.55 0.59 0.70 0.75 0.78 0.81 0.92 1.13 1.23 1.25 1.28 1.30 1.30 1.37 1.49 1.48 1.47 1.55 1.52 1.50 1.50 1.51 1.52
0.33 0.35 0.23 0.36 0.39 0.39 0.32 0.36 0.33 0.34 0.31 0.32 0.32 0.30 0.33 0.33 0.35 0.33 0.31 0.25 0.22 0.20 0.19 0.18 0.18 0.25 0.36 0.38 0.39 0.43 0.45 0.47 0.49 0.50 0.52 0.52 0.53 0.54 0.55 0.56 0.57 0.59 0.63 0.64 0.65 0.62 0.59 0.57 0.58 0.60 0.60 0.56 0.54 0.53 0.53 0.53 0.50 0.48 0.47 0.46 0.45 0.45 0.54 0.57 0.58 0.62 0.71 0.80 0.84 0.85 0.91 1.12 1.21 1.19 1.26 1.26 1.39 1.44 1.47 1.49 1.52 1.51 1.58 1.59 1.56 1.54
0.33 0.31 0.25 0.30 0.32 0.32 0.34 0.41 0.39 0.38 0.38 0.34 0.33 0.29 0.32 0.27 0.24 0.22 0.21 0.30 0.25 0.22 0.18 0.19 0.16 0.27 0.37 0.38 0.39 0.43 0.46 0.49 0.52 0.53 0.54 0.55 0.55 0.56 0.57 0.57 0.59 0.60 0.64 0.67 0.70 0.68 0.62 0.59 0.60 0.61 0.62 0.60 0.56 0.54 0.54 0.55 0.53 0.52 0.50 0.48 0.46 0.45 0.52 0.61 0.64 0.64 0.65 0.74 0.82 0.85 0.86 0.96 1.18 1.22 1.25 1.28 1.33 1.39 1.43 1.52 1.52 1.54 1.60 1.54 1.52 1.49
0.39 0.34 0.31 0.26 0.29 0.32 0.37 0.41 0.45 0.45 0.44 0.40 0.37 0.33 0.36 0.33 0.31 0.24 0.17 0.19 0.25 0.24 0.26 0.24 0.20 0.23 0.39 0.35 0.39 0.42 0.44 0.49 0.54 0.56 0.55 0.57 0.56 0.57 0.58 0.58 0.58 0.58 0.64 0.67 0.67 0.69 0.68 0.65 0.61 0.61 0.61 0.61 0.59 0.57 0.57 0.57 0.55 0.53 0.51 0.50 0.49 0.45 0.45 0.53 0.63 0.70 0.73 0.68 0.75 0.82 0.88 0.92 1.03 1.18 1.24 1.27 1.26 1.31 1.40 1.47 1.54 1.53 1.57 1.52 1.47 1.47
0.44 0.33 0.28 0.30 0.34 0.38 0.41 0.45 0.47 0.47 0.46 0.39 0.40 0.40 0.35 0.28 0.28 0.25 0.25 0.25 0.23 0.22 0.20 0.20 0.17 0.21 0.30 0.32 0.38 0.40 0.41 0.47 0.54 0.55 0.55 0.58 0.58 0.57 0.58 0.58 0.57 0.55 0.56 0.61 0.65 0.67 0.68 0.67 0.64 0.60 0.60 0.61 0.60 0.59 0.60 0.58 0.57 0.55 0.53 0.52 0.51 0.48 0.46 0.47 0.56 0.63 0.65 0.69 0.70 0.76 0.85 0.92 0.96 1.07 1.22 1.31 1.35 1.36 1.43 1.48 1.49 1.48 1.46 1.43 1.43 1.44
0.35 0.35 0.29 0.24 0.27 0.33 0.37 0.41 0.44 0.45 0.42 0.35 0.34 0.38 0.37 0.36 0.33 0.32 0.33 0.31 0.24 0.22 0.21 0.20 0.15 0.18 0.27 0.34 0.35 0.38 0.37 0.41 0.49 0.54 0.58 0.55 0.57 0.58 0.58 0.59 0.61 0.59 0.56 0.53 0.58 0.62 0.64 0.64 0.63 0.61 0.61 0.60 0.58 0.57 0.58 0.61 0.59 0.56 0.55 0.54 0.54 0.52 0.49 0.46 0.50 0.58 0.62 0.66 0.69 0.72 0.81 0.88 0.94 1.00 1.15 1.30 1.34 1.35 1.45 1.47 1.48 1.51 1.47 1.44 1.42 1.45
0.38 0.33 0.29 0.23 0.20 0.17 0.17 0.19 0.23 0.26 0.31 0.36 0.37 0.36 0.35 0.33 0.30 0.29 0.23 0.25 0.19 0.22 0.24 0.21 0.16 0.22 0.29 0.32 0.31 0.33 0.36 0.36 0.45 0.52 0.57 0.59 0.59 0.59 0.61 0.60 0.61 0.60 0.59 0.54 0.51 0.53 0.57 0.61 0.62 0.61 0.61 0.60 0.59 0.59 0.60 0.63 0.62 0.60 0.59 0.58 0.58 0.56 0.53 0.48 0.49 0.54 0.59 0.61 0.64 0.69 0.73 0.81 0.89 0.92 1.01 1.20 1.32 1.34 1.37 1.44 1.44 1.45 1.47 1.47 1.41 1.41
0.36 0.37 0.34 0.30 0.25 0.24 0.29 0.30 0.37 0.37 0.35 0.28 0.32 0.33 0.32 0.34 0.36 0.32 0.29 0.24 0.19 0.22 0.23 0.25 0.21 0.21 0.24 0.27 0.27 0.28 0.33 0.34 0.39 0.47 0.52 0.56 0.59 0.60 0.59 0.61 0.61 0.62 0.61 0.57 0.55 0.53 0.53 0.52 0.54 0.57 0.60 0.61 0.63 0.65 0.67 0.67 0.65 0.61 0.61 0.60 0.61 0.61 0.59 0.54 0.49 0.51 0.56 0.60 0.59 0.62 0.68 0.75 0.81 0.90 0.95 1.05 1.19 1.30 1.33 1.35 1.33 1.37 1.39 1.42 1.42 1.43
0.37 0.32 0.36 0.34 0.33 0.34 0.35 0.36 0.39 0.39 0.33 0.34 0.33 0.32 0.34 0.33 0.33 0.30 0.24 0.21 0.28 0.23 0.17 0.23 0.25 0.22 0.24 0.27 0.28 0.27 0.30 0.33 0.37 0.46 0.51 0.53 0.56 0.56 0.55 0.61 0.62 0.60 0.59 0.57 0.58 0.56 0.52 0.53 0.54 0.56 0.58 0.59 0.60 0.62 0.66 0.68 0.68 0.65 0.64 0.62 0.63 0.65 0.64 0.60 0.55 0.53 0.54 0.59 0.60 0.60 0.64 0.71 0.77 0.83 0.89 0.97 1.03 1.09 1.21 1.30 1.30 1.34 1.37 1.42 1.43 1.44
0.34 0.29 0.36 0.34 0.33 0.36 0.37 0.38 0.40 0.39 0.38 0.37 0.36 0.34 0.31 0.32 0.32 0.28 0.27 0.30 0.29 0.22 0.17 0.23 0.25 0.23 0.26 0.29 0.31 0.29 0.33 0.32 0.33 0.41 0.52 0.55 0.58 0.55 0.53 0.56 0.59 0.59 0.60 0.58 0.56 0.56 0.53 0.52 0.53 0.55 0.56 0.58 0.59 0.58 0.59 0.63 0.66 0.67 0.69 0.68 0.68 0.68 0.67 0.65 0.58 0.54 0.56 0.58 0.59 0.59 0.63 0.70 0.77 0.82 0.87 0.96 1.02 1.06 1.08 1.12 1.22 1.30 1.35 1.37 1.36 1.44
0.37 0.34 0.39 0.37 0.33 0.33 0.37 0.37 0.39 0.37 0.38 0.37 0.37 0.36 0.34 0.34 0.33 0.32 0.30 0.31 0.31 0.26 0.26 0.25 0.26 0.25 0.30 0.30 0.32 0.30 0.34 0.33 0.33 0.38 0.49 0.52 0.54 0.53 0.50 0.54 0.58 0.59 0.59 0.59 0.58 0.58 0.56 0.54 0.54 0.56 0.57 0.57 0.58 0.58 0.59 0.63 0.64 0.68 0.68 0.68 0.69 0.69 0.70 0.68 0.62 0.56 0.56 0.57 0.59 0.63 0.66 0.70 0.77 0.81 0.84 0.91 0.97 1.02 1.07 1.09 1.13 1.21 1.27 1.27 1.28 1.33
0.34 0.31 0.36 0.36 0.30 0.31 0.37 0.38 0.39 0.37 0.36 0.34 0.37 0.36 0.36 0.34 0.33 0.33 0.32 0.32 0.32 0.28 0.26 0.26 0.25 0.24 0.30 0.34 0.32 0.32 0.33 0.32 0.33 0.31 0.42 0.51 0.52 0.49 0.48 0.52 0.57 0.58 0.59 0.60 0.64 0.62 0.60 0.57 0.56 0.57 0.58 0.58 0.59 0.60 0.62 0.66 0.67 0.68 0.69 0.71 0.72 0.72 0.72 0.68 0.68 0.60 0.58 0.57 0.61 0.67 0.72 0.74 0.75 0.81 0.84 0.90 0.96 1.00 1.05 1.08 1.12 1.09 1.12 1.20 1.23 1.31
0.38 0.32 0.38 0.35 0.27 0.28 0.34 0.36 0.36 0.37 0.35 0.34 0.36 0.37 0.35 0.32 0.29 0.32 0.30 0.33 0.28 0.24 0.24 0.25 0.21 0.22 0.29 0.33 0.31 0.30 0.29 0.29 0.28 0.28 0.40 0.48 0.50 0.48 0.47 0.51 0.56 0.59 0.59 0.61 0.66 0.67 0.64 0.60 0.58 0.58 0.59 0.61 0.63 0.65 0.66 0.68 0.69 0.69 0.65 0.68 0.69 0.74 0.72 0.73 0.71 0.65 0.59 0.61 0.64 0.66 0.69 0.73 0.77 0.80 0.83 0.89 0.96 1.00 1.02 1.07 1.08 1.05 1.08 1.14 1.19 1.23
0.36 0.34 0.30 0.30 0.25 0.24 0.35 0.35 0.34 0.30 0.31 0.30 0.34 0.37 0.35 0.36 0.37 0.36 0.34 0.33 0.33 0.33 0.25 0.20 0.21 0.27 0.29 0.29 0.25 0.26 0.27 0.27 0.26 0.27 0.39 0.46 0.47 0.46 0.47 0.50 0.57 0.60 0.60 0.61 0.65 0.70 0.68 0.65 0.63 0.61 0.61 0.63 0.66 0.68 0.72 0.73 0.71 0.70 0.72 0.73 0.75 0.78 0.76 0.71 0.67 0.68 0.64 0.64 0.68 0.68 0.70 0.76 0.80 0.84 0.86 0.87 0.93 0.99 1.03 1.02 1.01 1.01 1.04 1.08 1.15 1.21
0.36 0.33 0.30 0.34 0.22 0.23 0.32 0.33 0.32 0.26 0.18 0.22 0.39 0.44 0.39 0.35 0.36 0.32 0.27 0.29 0.32 0.31 0.27 0.29 0.27 0.28 0.28 0.26 0.25 0.25 0.25 0.25 0.26 0.30 0.45 0.46 0.43 0.42 0.44 0.52 0.57 0.61 0.61 0.62 0.65 0.70 0.72 0.71 0.69 0.68 0.66 0.65 0.69 0.72 0.74 0.76 0.74 0.75 0.77 0.78 0.78 0.78 0.80 0.81 0.71 0.66 0.71 0.71 0.73 0.72 0.75 0.80 0.84 0.87 0.94 0.95 0.95 0.96 0.97 0.97 0.92 0.94 0.98 1.03 1.09 1.11
0.32 0.32 0.28 0.33 0.24 0.23 0.29 0.28 0.23 0.16 0.19 0.37 0.42 0.43 0.44 0.42 0.41 0.35 0.30 0.32 0.31 0.30 0.30 0.27 0.27 0.27 0.26 0.27 0.27 0.27 0.27 0.26 0.28 0.34 0.42 0.44 0.45 0.41 0.44 0.51 0.57 0.60 0.60 0.62 0.64 0.69 0.72 0.73 0.72 0.70 0.69 0.69 0.69 0.71 0.73 0.73 0.75 0.75 0.75 0.78 0.76 0.79 0.78 0.79 0.88 0.86 0.82 0.77 0.81 0.85 0.86 0.84 0.86 0.90 0.94 0.98 1.00 0.99 0.95 0.93 0.93 0.93 0.95 0.97 1.00 1.02
0.31 0.29 0.30 0.27 0.28 0.28 0.23 0.24 0.16 0.17 0.31 0.34 0.38 0.43 0.45 0.44 0.41 0.35 0.29 0.33 0.32 0.28 0.30 0.26 0.26 0.27 0.27 0.27 0.28 0.28 0.26 0.25 0.32 0.36 0.39 0.38 0.42 0.41 0.45 0.49 0.56 0.58 0.59 0.61 0.64 0.67 0.70 0.73 0.73 0.72 0.71 0.73 0.73 0.72 0.74 0.74 0.77 0.77 0.76 0.79 0.78 0.75 0.73 0.73 0.76 0.81 0.81 0.80 0.85 0.92 0.91 0.91 0.92 0.94 1.04 0.97 0.98 1.02 0.98 0.95 0.94 0.91 0.95 0.98 1.01 1.05
0.36 0.34 0.31 0.25 0.33 0.20 0.22 0.21 0.20 0.27 0.27 0.32 0.33 0.36 0.40 0.34 0.34 0.30 0.23 0.25 0.33 0.31 0.30 0.28 0.27 0.27 0.27 0.27 0.27 0.26 0.25 0.27 0.27 0.26 0.34 0.32 0.38 0.42 0.47 0.50 0.57 0.58 0.59 0.62 0.64 0.65 0.69 0.74 0.76 0.76 0.76 0.74 0.73 0.72 0.72 0.75 0.77 0.77 0.76 0.76 0.77 0.75 0.73 0.71 0.70 0.75 0.79 0.79 0.79 0.85 0.91 0.96 0.96 0.96 0.98 1.00 1.03 1.07 0.98 0.96 0.96 0.98 1.02 1.00 0.99 1.00
0.40 0.29 0.35 0.28 0.26 0.29 0.22 0.18 0.18 0.19 0.17 0.25 0.34 0.43 0.45 0.45 0.42 0.41 0.34 0.29 0.38 0.34 0.34 0.32 0.26 0.26 0.26 0.26 0.25 0.25 0.26 0.22 0.19 0.20 0.26 0.29 0.37 0.42 0.46 0.49 0.54 0.57 0.58 0.62 0.65 0.67 0.67 0.70 0.74 0.79 0.78 0.74 0.73 0.72 0.73 0.75 0.76 0.76 0.74 0.74 0.75 0.74 0.70 0.70 0.69 0.73 0.77 0.78 0.80 0.84 0.88 0.92 0.94 0.93 0.97 1.01 1.01 1.05 1.10 1.09 1.06 1.01 1.06 1.00 0.98 0.95
0.39 0.38 0.35 0.29 0.25 0.26 0.21 0.18 0.17 0.15 0.20 0.31 0.34 0.41 0.45 0.45 0.44 0.43 0.35 0.27 0.38 0.37 0.35 0.32 0.27 0.26 0.26 0.25 0.24 0.25 0.20 0.15 0.15 0.18 0.24 0.29 0.36 0.41 0.45 0.48 0.49 0.53 0.56 0.59 0.61 0.63 0.64 0.66 0.69 0.71 0.73 0.74 0.71 0.73 0.73 0.74 0.75 0.74 0.70 0.70 0.70 0.71 0.69 0.67 0.69 0.70 0.73 0.77 0.80 0.81 0.87 0.94 0.95 0.94 0.95 0.91 0.92 0.99 1.03 1.08 1.14 1.18 1.13 1.08 1.07 1.03
0.35 0.35 0.31 0.26 0.23 0.24 0.23 0.19 0.18 0.26 0.24 0.33 0.40 0.41 0.46 0.46 0.44 0.40 0.22 0.22 0.36 0.37 0.37 0.33 0.28 0.26 0.27 0.27 0.26 0.23 0.19 0.14 0.15 0.18 0.26 0.32 0.37 0.40 0.44 0.45 0.45 0.46 0.53 0.58 0.60 0.63 0.65 0.65 0.64 0.64 0.67 0.67 0.67 0.71 0.73 0.73 0.74 0.72 0.68 0.68 0.70 0.68 0.68 0.69 0.71 0.73 0.73 0.77 0.80 0.82 0.84 0.91 0.99 1.04 1.04 1.00 0.97 0.95 0.95 1.00 1.11 1.18 1.19 1.21 1.20 1.15
0.29 0.29 0.28 0.22 0.23 0.25 0.24 0.22 0.24 0.25 0.34 0.41 0.40 0.45 0.45 0.48 0.41 0.27 0.20 0.28 0.38 0.40 0.39 0.37 0.32 0.30 0.29 0.27 0.26 0.21 0.22 0.23 0.23 0.26 0.31 0.34 0.35 0.37 0.40 0.45 0.45 0.46 0.48 0.53 0.55 0.58 0.60 0.61 0.61 0.60 0.62 0.64 0.66 0.68 0.71 0.72 0.72 0.71 0.68 0.67 0.67 0.66 0.68 0.71 0.76 0.76 0.72 0.72 0.77 0.82 0.84 0.88 0.95 1.02 1.08 1.12 1.14 1.13 1.04 0.99 0.98 1.14 1.12 1.16 1.27 1.14
0.25 0.27 0.27 0.28 0.23 0.21 0.24 0.22 0.22 0.25 0.34 0.40 0.44 0.47 0.48 0.38 0.25 0.23 0.35 0.45 0.43 0.40 0.40 0.39 0.35 0.33 0.31 0.28 0.27 0.26 0.27 0.29 0.29 0.31 0.31 0.31 0.33 0.36 0.39 0.41 0.42 0.43 0.45 0.49 0.53 0.54 0.53 0.56 0.55 0.56 0.60 0.63 0.64 0.66 0.69 0.70 0.70 0.71 0.70 0.66 0.64 0.66 0.70 0.71 0.73 0.77 0.75 0.73 0.72 0.77 0.84 0.86 0.90 0.94 0.99 1.04 1.07 1.07 1.06 1.06 1.06 1.02 1.06 1.13 1.15 1.17
0.23 0.23 0.21 0.23 0.27 0.27 0.25 0.20 0.20 0.16 0.34 0.42 0.43 0.43 0.47 0.30 0.30 0.41 0.43 0.43 0.46 0.43 0.41 0.40 0.37 0.35 0.33 0.29 0.30 0.29 0.29 0.30 0.32 0.32 0.30 0.30 0.33 0.34 0.37 0.39 0.40 0.39 0.40 0.41 0.43 0.47 0.48 0.48 0.48 0.50 0.51 0.58 0.63 0.65 0.65 0.67 0.66 0.67 0.70 0.68 0.66 0.68 0.70 0.72 0.73 0.75 0.77 0.76 0.74 0.74 0.76 0.82 0.86 0.89 0.92 0.95 0.99 1.01 1.02 1.08 1.12 1.15 1.13 1.13 1.14 1.16
0.30 0.23 0.22 0.23 0.27 0.21 0.22 0.20 0.20 0.30 0.38 0.45 0.41 0.32 0.41 0.43 0.45 0.45 0.42 0.39 0.43 0.43 0.42 0.40 0.39 0.37 0.35 0.32 0.30 0.30 0.31 0.31 0.32 0.31 0.30 0.30 0.32 0.35 0.37 0.40 0.41 0.42 0.41 0.41 0.42 0.42 0.41 0.41 0.41 0.42 0.45 0.48 0.54 0.60 0.65 0.64 0.63 0.67 0.68 0.69 0.74 0.72 0.71 0.71 0.71 0.72 0.74 0.75 0.75 0.74 0.75 0.76 0.79 0.83 0.88 0.91 0.95 0.96 0.96 1.01 1.13 1.20 1.28 1.18 1.17 1.13
0.30 0.26 0.28 0.25 0.37 0.28 0.24 0.28 0.39 0.43 0.44 0.47 0.46 0.44 0.47 0.50 0.49 0.46 0.44 0.42 0.42 0.42 0.45 0.42 0.40 0.39 0.37 0.35 0.33 0.32 0.30 0.31 0.30 0.31 0.29 0.29 0.31 0.34 0.37 0.39 0.40 0.40 0.40 0.39 0.38 0.39 0.38 0.36 0.34 0.35 0.38 0.42 0.43 0.51 0.58 0.62 0.61 0.63 0.67 0.70 0.73 0.74 0.74 0.71 0.70 0.70 0.70 0.72 0.73 0.74 0.76 0.76 0.77 0.78 0.80 0.82 0.86 0.86 0.87 0.92 0.99 1.07 1.17 1.16 1.14 1.12
0.37 0.37 0.40 0.32 0.29 0.35 0.37 0.37 0.40 0.41 0.43 0.46 0.51 0.51 0.48 0.49 0.51 0.48 0.45 0.43 0.44 0.44 0.45 0.43 0.43 0.40 0.37 0.36 0.32 0.33 0.31 0.31 0.31 0.31 0.30 0.30 0.32 0.36 0.39 0.40 0.41 0.42 0.42 0.40 0.37 0.36 0.34 0.33 0.33 0.33 0.32 0.34 0.38 0.40 0.48 0.55 0.58 0.57 0.64 0.76 0.79 0.76 0.74 0.74 0.71 0.69 0.69 0.70 0.70 0.71 0.74 0.74 0.75 0.75 0.75 0.77 0.80 0.82 0.87 0.88 0.90 0.95 1.03 1.06 1.06 1.07
0.33 0.37 0.34 0.27 0.32 0.30 0.24 0.37 0.38 0.40 0.45 0.47 0.48 0.52 0.52 0.49 0.48 0.49 0.46 0.45 0.45 0.45 0.46 0.47 0.45 0.41 0.38 0.36 0.35 0.32 0.31 0.33 0.32 0.31 0.30 0.31 0.33 0.35 0.36 0.38 0.39 0.42 0.41 0.37 0.36 0.35 0.33 0.31 0.30 0.29 0.29 0.29 0.32 0.36 0.39 0.44 0.50 0.55 0.59 0.67 0.76 0.79 0.78 0.74 0.73 0.71 0.70 0.68 0.68 0.69 0.71 0.71 0.72 0.72 0.73 0.74 0.75 0.77 0.81 0.87 0.90 0.90 0.92 0.94 0.96 0.97
0.27 0.44 0.31 0.30 0.30 0.28 0.27 0.33 0.37 0.43 0.45 0.47 0.47 0.46 0.45 0.48 0.49 0.49 0.48 0.47 0.47 0.47 0.47 0.46 0.46 0.41 0.39 0.35 0.35 0.33 0.32 0.33 0.32 0.30 0.29 0.30 0.32 0.34 0.36 0.37 0.38 0.40 0.41 0.39 0.37 0.36 0.35 0.32 0.30 0.29 0.28 0.28 0.30 0.33 0.36 0.38 0.40 0.47 0.53 0.59 0.66 0.71 0.75 0.74 0.71 0.69 0.69 0.69 0.68 0.68 0.69 0.69 0.69 0.70 0.71 0.72 0.73 0.72 0.72 0.76 0.81 0.84 0.86 0.89 0.92 0.91
0.39 0.39 0.26 0.30 0.28 0.31 0.35 0.37 0.39 0.40 0.39 0.40 0.46 0.49 0.48 0.48 0.48 0.48 0.48 0.47 0.48 0.47 0.47 0.47 0.46 0.41 0.38 0.36 0.36 0.34 0.32 0.33 0.32 0.31 0.29 0.30 0.33 0.34 0.35 0.37 0.38 0.39 0.38 0.37 0.37 0.37 0.34 0.34 0.32 0.31 0.30 0.29 0.30 0.32 0.34 0.36 0.39 0.42 0.44 0.49 0.55 0.61 0.64 0.67 0.70 0.70 0.68 0.68 0.69 0.70 0.71 0.69 0.69 0.68 0.68 0.69 0.71 0.73 0.73 0.71 0.72 0.75 0.79 0.88 0.93 0.95
0.34 0.28 0.31 0.29 0.25 0.24 0.25 0.29 0.35 0.29 0.30 0.40 0.46 0.48 0.50 0.52 0.51 0.48 0.48 0.46 0.46 0.46 0.46 0.44 0.43 0.42 0.40 0.39 0.36 0.34 0.32 0.31 0.32 0.31 0.30 0.31 0.32 0.34 0.35 0.36 0.38 0.38 0.37 0.38 0.37 0.36 0.35 0.35 0.34 0.33 0.32 0.32 0.33 0.33 0.33 0.35 0.37 0.39 0.41 0.43 0.45 0.49 0.52 0.55 0.59 0.61 0.65 0.70 0.70 0.71 0.74 0.72 0.69 0.69 0.68 0.68 0.67 0.68 0.69 0.73 0.73 0.72 0.71 0.70 0.77 0.86
0.32 0.32 0.31 0.26 0.25 0.25 0.32 0.35 0.38 0.38 0.37 0.41 0.46 0.49 0.50 0.52 0.51 0.48 0.46 0.45 0.46 0.47 0.46 0.44 0.41 0.39 0.38 0.38 0.37 0.34 0.32 0.31 0.30 0.31 0.32 0.32 0.33 0.34 0.35 0.35 0.36 0.36 0.35 0.35 0.34 0.33 0.32 0.33 0.34 0.34 0.34 0.35 0.36 0.36 0.35 0.35 0.36 0.38 0.39 0.40 0.41 0.43 0.45 0.48 0.50 0.54 0.58 0.61 0.66 0.70 0.72 0.72 0.70 0.69 0.68 0.68 0.68 0.68 0.65 0.64 0.67 0.70 0.69 0.68 0.69 0.73
Wind_Speed
4 3 3 4 5 6 6 5 6 6 6 7 8 8 9 10 10 9 9 8 9 12 12 13 14 15 17 17 17 17 18 19 19 20 20 20 21 22 22 23 24 24 24 23 23 23 24 25 27 28 29 31 32 33 34 34 34 33 33 33 33 32 31 34 38 39 38 38 38 39 37 35 34 33 32 31 30 30 28 28 27 26 25 25 24 23
3 3 4 5 6 6 6 6 6 7 7 8 9 9 9 10 10 10 11 10 9 11 12 14 15 16 17 17 17 18 18 18 19 19 19 19 19 20 21 23 24 24 24 24 24 24 23 24 26 28 29 30 32 34 34 34 35 34 34 34 34 34 31 31 36 39 39 38 39 40 38 37 35 34 34 33 32 31 30 29 28 27 27 26 25 24
1 3 5 6 6 7 6 6 7 8 8 8 8 9 9 9 10 11 10 9 10 11 13 15 15 16 17 17 16 15 15 14 15 16 16 17 17 18 18 20 22 24 24 25 25 24 24 24 25 27 29 30 32 35 35 35 35 35 35 35 34 35 34 31 33 39 40 39 39 40 39 38 37 35 34 34 33 33 32 32 30 29 28 27 26 25
1 4 6 6 7 7 6 5 6 7 7 7 7 9 9 9 10 10 9 10 12 14 15 15 15 15 14 12 10 10 10 12 12 12 13 14 15 16 16 17 19 21 23 24 25 25 25 25 25 26 28 30 32 34 36 35 36 36 37 37 35 35 36 33 32 37 40 39 39 40 40 39 37 36 35 34 34 33 33 33 32 30 29 28 27 26
2 5 7 7 6 7 5 4 6 7 7 7 8 9 9 10 11 11 12 13 15 14 12 11 13 10 7 7 7 8 9 10 9 9 10 11 12 13 15 16 16 18 20 23 24 25 25 25 25 26 27 29 31 33 35 36 36 36 37 38 37 36 36 35 33 35 38 40 40 40 40 40 38 37 36 35 35 34 34 33 32 31 31 30 29 28
4 6 6 6 6 6 5 5 7 8 8 8 7 7 9 11 12 13 13 12 12 9 6 8 10 7 5 8 9 9 9 8 7 8 8 9 9 11 12 13 15 16 18 20 22 24 25 26 26 27 27 27 29 31 34 35 36 37 37 38 39 38 37 37 35 35 36 39 42 42 41 41 41 40 39 37 36 35 35 34 33 32 32 31 30 29
4 5 5 6 6 6 5 5 7 8 8 7 6 8 11 12 12 12 12 11 9 8 7 8 9 7 7 7 7 8 8 6 6 7 8 9 9 9 11 13 14 15 16 18 20 22 24 26 26 27 27 28 28 30 32 34 35 37 37 37 38 39 39 38 36 36 35 36 40 43 44 43 43 42 41 39 37 36 35 35 34 34 34 33 32 30
4 4 5 7 6 6 6 6 7 8 7 7 8 11 12 11 12 11 11 9 8 8 8 6 6 7 7 5 5 6 6 5 7 8 8 9 10 11 12 13 14 15 16 17 18 20 22 25 26 27 28 28 28 29 31 32 33 35 37 38 38 39 39 39 38 37 37 36 37 40 43 44 44 43 42 40 38 37 36 36 35 35 34 34 33 31
3 4 6 7 6 6 6 6 7 8 7 8 11 12 11 10 10 9 8 7 7 6 5 4 6 7 5 3 4 4 4 7 9 10 10 11 12 13 14 14 15 15 16 16 17 19 20 23 25 26 27 28 29 29 30 31 32 34 35 37 38 39 39 39 40 40 39 38 37 38 40 42 43 42 42 42 40 39 38 37 36 35 35 35 34 32
2 4 5 7 7 6 6 6 7 8 9 10 12 11 8 7 6 6 6 5 4 4 3 5 7 6 3 3 4 5 7 10 11 11 12 13 14 14 15 16 16 16 16 16 17 18 19 21 23 25 26 27 28 29 29 31 32 33 34 36 38 39 39 40 41 41 40 40 39 38 39 41 41 41 42 44 42 41 40 38 37 36 35 35 34 32
2 2 4 6 7 7 6 6 6 8 10 12 12 9 5 4 3 3 3 3 2 1 3 6 7 6 4 3 5 7 9 11 12 13 14 16 17 17 17 17 18 17 17 17 18 18 19 20 21 24 25 27 28 29 29 30 31 33 34 35 37 39 39 40 41 41 41 40 39 39 39 40 41 41 43 46 45 43 41 39 38 36 36 35 34 32
2 1 2 4 7 8 7 5 5 7 11 12 11 9 5 3 3 2 2 3 2 3 5 7 7 6 3 3 6 8 10 12 13 15 17 18 19 18 18 19 19 19 18 18 18 18 19 19 20 22 24 25 27 28 29 29 30 32 34 35 36 37 39 40 41 41 41 41 40 40 40 40 41 41 43 47 48 46 44 41 39 37 36 36 35 34
2 2 2 2 5 9 9 7 6 7 11 12 12 10 6 4 4 4 4 4 4 5 7 8 6 3 2 4 8 10 12 14 15 16 18 19 20 20 20 20 20 20 20 19 19 19 19 19 20 21 22 24 25 27 28 29 30 31 33 34 35 36 38 39 41 42 42 42 41 40 39 40 41 42 43 47 49 48 46 43 40 38 37 36 36 35
2 2 3 2 4 8 9 8 7 9 11 12 12 11 9 6 6 6 6 5 5 6 8 8 4 4 5 6 9 12 14 16 17 18 19 19 20 21 21 21 21 22 21 20 20 19 20 20 20 21 22 23 24 25 27 29 30 30 32 34 35 36 37 38 40 41 43 43 42 40 38 37 38 40 43 46 48 49 47 44 42 40 39 38 37 36
3 1 3 4 4 7 8 8 8 8 9 11 11 10 10 8 6 6 6 6 6 6 8 9 5 6 7 5 9 14 16 18 19 19 20 20 20 21 22 22 22 22 22 22 21 20 20 21 21 21 21 22 23 24 25 27 29 30 31 32 34 36 36 37 38 40 42 43 42 41 39 37 35 35 39 44 46 48 47 45 44 43 41 39 38 38
2 1 2 3 4 6 7 8 9 7 6 8 9 9 10 8 6 6 6 6 6 5 7 8 6 8 8 5 10 17 18 20 21 21 21 20 20 21 21 22 22 23 23 23 22 22 21 21 22 22 22 22 23 23 24 26 28 30 31 32 33 35 36 37 37 39 41 42 43 42 41 39 37 35 36 40 44 46 47 46 45 45 43 41 40 39
2 1 1 2 3 4 5 7 9 8 7 6 8 9 8 8 7 6 5 6 5 4 6 8 6 8 8 6 12 19 20 21 22 22 22 21 21 22 21 22 23 23 23 24 24 23 23 22 22 23 23 23 23 24 25 26 27 29 31 32 33 34 35 37 37 38 39 41 42 43 41 40 39 38 36 37 41 45 46 46 45 45 44 43 42 41
2 2 2 3 2 3 4 4 7 10 8 6 7 8 6 6 6 6 5 6 6 5 6 8 8 8 9 9 14 20 22 22 23 23 23 22 22 22 22 22 22 23 24 25 25 24 24 23 23 23 23 24 24 25 25 26 27 28 29 31 33 33 34 36 37 38 38 39 41 42 42 40 39 39 38 37 39 42 45 46 44 44 45 44 43 41
3 3 2 3 2 2 3 3 5 8 8 7 7 7 6 6 6 6 6 6 7 7 7 9 9 8 10 13 17 21 23 23 23 23 23 24 22 22 22 23 22 21 22 24 24 24 23 24 24 23 23 24 24 24 25 26 26 27 28 30 32 33 34 35 37 38 38 38 39 41 42 42 40 38 38 38 39 41 44 46 44 43 44 44 44 42
3 3 2 2 3 2 3 4 5 6 6 6 6 7 7 6 6 7 7 6 7 8 8 10 10 9 11 16 19 22 23 23 24 23 23 24 23 22 22 23 22 20 19 20 22 23 23 23 24 24 23 23 24 24 25 25 26 26 27 29 30 32 34 35 36 37 38 38 38 40 42 43 41 39 38 38 38 40 42 44 44 44 43 43 44 43
3 4 3 2 2 3 3 4 5 6 6 6 7 8 8 6 6 5 6 7 8 9 9 10 11 9 11 16 19 21 22 23 23 24 23 23 23 23 22 22 21 19 17 16 18 21 22 22 22 23 23 23 23 24 24 24 25 26 26 27 29 30 32 34 36 37 38 38 39 39 41 43 42 40 39 39 40 39 41 42 42 44 43 43 44 43
3 4 4 3 3 3 2 3 5 6 6 6 6 7 8 7 6 6 6 7 8 9 9 10 11 10 11 16 19 20 21 22 23 24 23 23 23 23 22 21 21 20 17 14 15 17 19 21 22 22 23 23 23 23 23 24 24 25 26 27 28 29 30 33 35 36 37 39 39 40 40 42 43 41 40 40 41 40 40 41 42 43 43 43 43 42
4 4 4 4 3 3 2 3 4 5 5 5 6 6 7 7 7 7 7 8 9 10 10 10 11 10 11 17 19 20 21 22 22 23 22 22 22 23 23 22 21 20 18 15 13 14 16 19 21 22 22 23 23 23 24 24 24 25 25 26 27 28 29 31 33 36 37 38 40 40 40 41 42 42 42 41 42 42 41 42 43 43 43 43 43 43
3 4 4 4 3 2 3 3 4 5 5 5 6 6 6 7 7 7 8 9 9 10 11 11 10 10 13 18 20 21 22 22 22 23 22 22 22 23 23 22 21 20 19 17 14 13 14 17 19 20 22 23 23 24 24 24 24 25 25 26 27 28 29 30 32 34 36 38 39 40 41 41 42 43 43 42 41 42 41 42 44 45 45 45 44 44
3 4 4 5 4 4 4 4 5 5 6 6 6 6 7 7 7 7 8 8 8 10 11 11 11 12 16 18 20 21 22 22 22 23 23 23 23 24 23 23 22 21 20 18 15 14 14 16 17 19 21 22 23 24 25 25 25 25 25 25 27 28 29 29 31 33 35 37 39 40 41 42 42 43 44 43 41 41 40 41 44 45 45 45 45 44
4 4 5 5 6 5 5 5 5 6 6 6 7 7 7 8 8 8 9 9 9 11 11 10 12 15 17 19 20 21 22 22 22 23 23 23 23 24 24 24 23 22 21 20 18 15 15 16 17 19 20 21 23 24 25 26 26 26 25 25 26 28 28 29 30 32 34 36 38 40 41 42 42 42 43 43 42 41 40 40 43 45 44 44 45 44
4 5 5 6 7 7 7 7 6 7 7 7 7 8 8 8 9 10 11 10 11 13 11 10 14 18 19 20 20 22 22 22 22 23 24 24 24 24 25 25 24 22 21 21 19 17 16 16 17 19 21 21 22 23 24 25 26 26 25 25 26 27 28 29 29 31 33 35 37 39 41 42 42 42 43 43 42 42 41 40 42 45 45 45 45 45
5 5 5 6 7 7 8 8 7 7 8 8 8 8 9 9 9 10 11 11 12 13 13 13 17 19 19 19 20 22 22 22 22 23 24 24 24 25 25 25 25 25 23 22 20 19 18 16 17 18 20 21 22 22 22 23 24 25 25 25 25 26 27 28 29 30 32 34 36 39 40 41 42 42 42 42 41 42 42 41 42 44 46 47 48 47
6 5 4 6 7 8 8 7 6 7 8 8 8 9 9 9 10 10 11 11 12 14 15 17 19 19 18 19 20 22 22 22 23 23 23 23 24 25 26 26 26 27 26 24 22 20 18 16 16 17 17 18 20 21 21 22 22 23 24 24 25 26 27 28 29 30 31 33 35 37 39 41 41 41 42 42 41 41 42 41 42 43 45 48 50 49
6 5 4 6 8 8 7 6 6 7 8 7 8 8 8 9 10 10 11 12 13 14 16 17 18 18 17 18 20 21 21 22 22 22 22 23 24 25 26 26 26 28 27 26 23 21 18 16 15 15 14 14 15 17 19 20 21 21 22 23 24 24 25 27 28 29 31 33 34 36 38 40 41 41 42 42 42 41 42 41 41 41 42 45 49 50
5 5 5 6 8 7 5 5 6 8 8 7 7 7 8 9 10 10 11 12 13 14 15 17 18 17 17 18 21 21 21 21 22 22 22 22 23 25 26 25 27 28 28 27 25 22 19 16 14 13 12 11 12 13 15 17 18 19 20 21 23 23 25 26 27 29 31 32 33 35 37 39 41 42 43 43 42 42 42 41 40 40 41 42 45 47
5 6 6 7 8 7 5 6 8 8 9 8 8 7 8 9 10 10 11 12 12 13 14 16 16 16 17 19 21 21 21 21 21 21 21 21 22 24 25 25 27 27 28 28 26 23 18 15 12 11 11 10 10 11 12 14 15 17 18 20 21 22 24 26 27 28 30 32 33 34 36 37 39 42 43 44 43 42 42 42 41 40 40 41 42 44
6 7 7 7 9 7 6 8 9 9 9 8 7 6 7 9 10 11 12 12 11 11 13 15 16 17 19 19 20 21 21 20 21 20 20 20 22 23 24 25 26 26 27 27 27 23 18 14 12 11 10 10 9 10 10 12 13 15 16 18 20 21 22 24 27 29 30 31 32 34 35 36 38 41 43 44 44 43 43 43 42 41 40 41 42 42
6 7 7 7 8 8 7 9 10 9 8 6 5 6 7 9 10 12 14 13 11 10 12 14 16 17 19 19 19 20 20 20 20 19 18 19 21 22 23 24 24 25 25 26 26 24 19 14 12 12 11 10 10 10 10 11 12 14 16 18 19 20 20 21 24 27 29 31 32 33 35 36 37 39 42 43 44 44 44 43 43 43 42 42 42 43
5 6 7 7 8 9 9 9 9 8 7 6 6 7 8 9 10 12 13 11 10 11 13 15 17 18 19 19 19 20 20 20 19 17 16 19 20 21 23 23 23 24 24 24 24 23 21 16 13 12 11 10 10 10 11 12 13 14 15 17 18 19 20 20 20 22 25 28 30 32 34 36 36 38 41 43 43 44 45 45 44 44 43 43 44 44
5 6 6 7 8 9 9 8 8 8 7 7 8 7 8 9 10 12 12 9 9 11 14 15 17 18 18 19 19 19 20 20 17 14 15 19 20 21 22 22 22 23 23 23 23 23 22 19 15 13 12 11 10 10 11 13 14 14 15 16 17 18 19 20 20 20 22 24 27 29 31 34 35 37 40 42 43 44 45 45 45 45 44 44 44 44
6 6 7 7 7 8 9 9 9 10 8 7 7 7 7 9 10 11 11 9 8 12 14 14 16 18 18 18 19 19 19 18 14 12 15 19 20 21 21 21 21 22 22 22 22 22 22 21 18 15 13 12 11 10 11 13 14 14 15 16 16 17 18 19 19 20 21 22 25 26 28 31 33 36 38 41 42 43 44 45 45 45 45 45 45 45
6 6 7 7 7 7 9 10 10 10 8 6 6 6 7 9 9 10 10 8 8 12 14 15 16 18 18 18 18 19 18 16 14 13 16 19 20 20 21 20 21 21 21 21 21 22 22 22 20 18 15 14 12 11 12 13 13 14 14 15 16 17 17 18 18 19 19 21 23 25 26 28 31 34 37 40 41 41 42 44 44 45 46 45 45 46
6 7 7 8 8 8 9 10 9 9 8 6 6 6 7 8 9 9 8 7 8 13 15 15 16 17 17 17 18 18 17 16 15 16 18 19 19 20 20 20 21 21 21 20 21 21 22 23 22 19 17 15 14 13 12 13 13 13 13 13 14 15 16 17 17 18 19 20 22 24 25 26 29 32 35 39 41 41 41 42 43 44 46 47 47 47
5 6 7 8 9 8 8 9 10 9 8 7 6 7 7 7 8 9 8 7 11 14 15 15 16 16 16 17 17 16 16 15 16 17 19 19 19 19 19 19 20 21 21 20 21 21 21 22 22 21 18 16 15 14 13 13 13 13 12 11 11 12 13 15 16 16 17 19 21 23 24 25 26 28 31 36 40 41 41 41 41 41 43 45 47 48
6 6 7 8 9 8 7 9 10 10 8 7 6 6 6 7 8 8 8 10 13 14 15 15 15 15 15 16 16 15 15 16 17 18 19 19 18 18 18 19 19 20 20 20 20 21 21 21 21 22 20 18 17 16 14 14 13 13 12 10 9 9 11 13 14 15 16 17 19 21 23 25 26 26 28 31 35 38 40 41 40 40 40 41 43 46
7 7 7 8 8 8 8 9 10 10 8 6 5 5 6 7 8 8 9 11 13 14 14 14 14 14 15 15 15 15 16 17 17 18 18 18 18 18 18 18 19 19 20 20 20 21 21 21 21 21 21 20 18 16 15 15 14 13 12 11 10 9 10 12 13 14 15 16 17 19 21 23 25 26 27 29 32 35 38 39 40 41 42 41 40 42
7 7 8 7 7 8 8 8 10 10 7 4 5 6 6 8 9 10 11 12 12 13 14 14 14 14 15 15 15 15 16 17 17 18 18 18 18 18 18 18 18 19 19 20 20 21 21 21 21 21 21 20 19 18 16 15 15 14 13 12 11 11 11 11 12 14 15 15 16 17 19 22 23 25 27 28 30 33 35 37 37 38 41 41 39 37
7 8 9 8 6 7 8 8 8 8 6 4 6 8 8 9 10 11 11 12 12 12 13 13 14 14 14 15 15 16 16 16 17 18 18 18 18 17 17 18 18 18 19 20 20 20 21 21 21 21 21 20 20 19 18 16 15 15 15 14 13 12 12 12 12 13 15 15 16 17 18 20 22 24 26 28 30 32 33 35 35 34 36 39 39 37
7 7 9 9 8 8 9 9 9 8 8 8 9 10 10 10 10 10 11 11 12 12 12 13 14 14 14 15 15 15 16 16 17 17 18 18 18 17 17 17 18 18 19 19 20 20 21 21 21 21 21 20 20 19 19 18 17 17 17 16 14 14 13 13 13 13 14 15 16 17 18 20 22 24 26 28 29 31 32 34 35 34 34 36 38 38
8 8 9 9 9 10 11 12 11 11 11 10 10 10 11 11 10 10 10 11 11 11 12 13 13 14 15 15 15 15 16 16 17 17 17 17 17 17 17 17 18 18 18 19 20 20 21 20 20 20 20 20 20 19 19 18 18 18 18 17 15 14 13 13 13 14 14 15 16 17 18 20 21 23 25 27 29 31 32 34 35 36 37 37 38 38
9 9 10 11 11 10 10 10 9 9 10 10 10 10 10 11 10 10 10 11 11 11 12 12 13 14 14 14 14 15 16 16 17 17 17 17 17 17 17 17 18 18 19 19 20 20 20 20 20 20 19 19 19 19 19 18 17 17 18 18 17 15 13 12 13 13 14 15 16 17 18 20 21 23 25 27 28 30 32 34 36 37 38 39 40 40
9 9 10 11 12 12 12 11 11 11 11 11 11 11 11 11 11 10 10 10 11 11 12 12 12 13 14 14 14 15 16 16 16 17 17 17 16 16 17 17 18 18 19 19 20 20 20 20 20 20 19 19 19 18 18 18 17 17 18 18 18 17 15 14 13 14 14 15 16 17 19 20 21 23 24 27 29 31 32 34 36 38 39 40 41 41
10 10 11 12 12 12 13 12 12 13 12 11 11 11 11 11 11 10 10 10 11 12 12 12 12 13 13 14 14 15 15 16 16 16 17 17 16 16 17 17 18 18 19 19 19 20 20 20 20 20 20 19 19 19 18 18 18 18 18 18 18 17 16 15 15 15 15 15 15 17 18 20 22 23 25 27 29 31 34 36 37 39 41 42 43 43
13 13 13 13 13 13 12 12 12 12 12 11 10 11 11 10 11 11 11 11 11 12 12 13 13 13 13 13 14 14 15 15 16 16 16 16 16 17 17 18 18 18 19 19 19 19 20 19 19 20 20 19 19 19 18 18 18 18 18 18 18 17 17 17 17 17 16 16 16 16 17 18 20 22 25 27 29 31 34 37 39 41 43 45 46 46
14 14 14 14 14 14 13 13 13 13 13 12 12 12 11 11 11 12 12 12 12 12 12 13 13 13 13 13 13 14 14 15 16 16 16 16 17 17 18 18 19 19 19 19 19 20 20 20 20 20 20 20 20 19 19 19 19 19 19 18 17 17 17 17 17 17 17 17 17 17 17 17 18 20 22 25 27 30 33 36 39 42 45 47 49 50
Wind_Direction
316 317 334 334 327 321 318 310 302 295 289 288 285 282 282 281 277 276 281 281 282 281 276 276 276 274 274 274 274 272 270 269 267 265 263 259 256 253 251 248 246 244 242 241 239 237 236 236 234 232 231 231 230 229 228 228 229 229 229 229 228 226 227 224 219 217 216 217 215 213 214 215 215 214 214 215 214 213 213 213 213 214 214 215 216 217
316 332 358 348 335 319 306 301 297 289 284 283 284 283 282 281 279 281 284 284 285 283 280 281 280 279 278 277 275 273 271 269 267 266 263 259 257 254 251 249 246 244 242 241 240 238 237 236 235 233 232 231 230 228 227 228 229 230 229 228 226 225 227 226 220 218 217 217 216 215 216 217 216 215 216 217 217 215 215 215 215 215 215 215 217 218
315 6 3 347 337 321 303 295 292 289 285 281 283 285 283 286 289 284 279 280 285 287 286 286 284 283 281 278 276 273 270 270 270 268 264 260 258 256 254 250 247 245 244 243 242 241 240 238 236 235 234 233 231 229 228 229 229 230 229 228 227 226 227 228 222 219 218 218 218 216 217 218 217 216 217 218 218 217 217 217 216 216 216 216 217 219
329 5 354 336 332 326 312 304 299 293 289 286 290 290 286 294 297 288 283 288 292 289 285 285 286 284 280 273 268 266 269 275 274 268 264 262 261 259 257 254 252 249 247 246 245 244 242 240 238 236 235 234 233 231 229 229 229 230 230 229 228 227 227 228 226 221 220 219 219 218 218 218 218 218 218 218 217 218 219 219 218 217 218 218 218 220
4 352 337 326 331 332 323 324 324 311 301 296 294 295 295 297 296 292 292 295 296 289 280 285 290 283 272 268 267 268 273 273 270 270 269 268 267 262 258 256 256 254 251 248 246 245 243 242 240 237 236 235 234 233 231 230 230 230 231 230 229 227 227 228 227 225 223 221 220 219 218 218 218 218 218 218 218 219 220 221 220 219 219 219 220 221
3 348 334 334 341 342 332 334 341 328 312 305 299 303 306 301 295 293 293 294 295 287 279 298 295 277 257 268 278 283 278 267 267 280 281 278 275 269 263 261 260 258 255 252 248 246 244 243 241 239 237 236 235 235 233 232 232 231 231 230 229 228 228 228 228 228 226 224 221 219 218 218 218 219 220 221 221 221 222 222 222 220 220 221 222 222
355 351 346 349 346 345 344 344 348 337 320 320 321 312 308 301 294 292 291 290 289 285 289 301 295 278 265 267 281 289 277 261 273 290 289 285 282 275 272 269 265 262 259 255 252 248 245 244 243 241 239 237 236 236 235 233 233 232 231 230 228 228 228 228 229 227 226 225 223 221 221 220 221 221 222 223 223 222 222 222 222 221 221 222 223 222
352 359 3 360 354 356 358 352 351 343 327 331 332 317 307 301 295 292 290 284 286 288 288 298 297 282 274 277 292 288 269 267 291 302 299 294 289 281 279 279 275 269 263 258 254 251 248 245 244 242 240 238 237 236 235 233 233 232 231 230 229 228 228 228 228 227 226 226 225 223 223 223 223 224 224 223 223 222 221 222 222 222 222 222 223 223
1 13 18 10 12 17 10 0 356 347 336 337 334 322 310 304 300 296 291 285 291 291 284 316 313 286 274 294 298 287 284 294 302 306 304 301 296 288 284 283 281 276 269 262 257 253 250 247 245 243 240 239 238 237 235 233 233 232 231 230 229 229 228 228 227 226 226 227 227 227 226 225 225 226 226 223 222 222 221 221 222 222 222 222 223 222
41 29 29 23 23 19 10 7 3 354 347 343 335 326 315 312 310 301 299 298 294 288 299 333 325 303 294 307 303 303 306 304 302 303 303 301 297 290 285 282 280 277 272 266 261 257 252 249 246 244 242 240 238 238 237 235 233 233 232 231 230 229 228 228 227 226 226 228 230 229 228 227 226 227 226 222 221 222 221 221 221 222 222 221 222 222
85 51 39 32 22 7 357 359 0 353 350 346 339 336 335 343 345 331 332 326 302 317 342 337 325 309 306 322 320 315 314 310 305 302 302 300 297 292 286 281 279 276 272 269 265 261 256 252 248 246 244 242 240 238 237 236 234 233 233 232 231 230 229 229 227 226 226 228 231 231 229 228 227 227 225 221 220 221 221 221 221 223 222 221 222 221
96 66 45 31 17 5 354 351 359 354 353 354 355 354 353 6 14 12 15 359 357 18 357 339 326 306 293 318 326 324 323 318 311 306 303 300 297 293 287 283 280 276 274 271 267 262 259 255 252 249 246 244 242 240 238 237 236 234 233 233 233 231 230 230 229 227 227 228 230 232 230 228 228 228 226 223 221 220 220 221 221 223 222 221 221 221
82 41 23 1 9 8 2 2 10 5 3 7 10 9 7 20 31 25 24 21 22 24 5 352 349 352 5 347 337 337 332 325 318 312 307 301 298 293 288 284 280 276 274 272 269 263 259 255 254 252 248 246 244 242 240 238 237 235 234 233 233 232 231 231 230 229 228 229 230 232 231 230 230 231 228 224 222 221 221 221 221 222 222 220 221 221
184 47 13 341 357 7 7 9 9 8 12 15 17 20 22 28 33 26 23 24 24 25 14 8 15 24 14 0 353 349 340 334 326 319 312 305 299 293 287 283 279 275 273 270 268 265 260 256 255 254 251 247 245 243 242 240 238 237 235 234 233 233 233 232 231 230 230 230 231 231 230 229 231 231 228 225 223 221 221 222 222 222 222 221 221 221
221 230 0 356 356 2 11 15 3 359 12 18 20 24 29 30 27 22 23 24 18 17 18 19 22 7 359 1 3 355 346 341 334 326 320 312 305 298 289 283 277 273 271 268 266 264 262 259 256 253 251 249 247 245 242 241 240 238 237 235 234 233 233 232 232 231 230 230 230 228 227 227 229 230 228 224 222 220 220 222 223 222 222 222 222 221
235 226 335 341 348 358 14 18 3 350 3 16 18 23 31 30 22 22 29 24 10 8 18 18 11 3 3 3 359 354 348 344 339 333 327 320 315 308 298 289 280 272 269 268 266 263 262 261 257 254 251 249 247 246 244 242 240 239 238 237 235 233 232 232 232 231 231 229 228 228 228 229 229 229 227 224 222 220 220 222 222 222 222 223 222 222
240 228 269 281 331 358 6 13 13 5 358 3 13 22 28 22 15 21 24 13 360 360 12 7 356 357 358 349 348 350 349 348 344 339 334 329 324 318 308 298 287 276 269 266 264 262 260 259 258 255 253 250 248 247 246 244 242 240 238 238 237 235 233 232 232 232 231 230 228 228 228 229 228 227 227 224 222 222 221 221 222 222 222 223 223 223
258 241 260 275 309 356 342 353 18 16 5 5 15 12 7 6 11 11 4 5 9 9 6 4 359 354 350 342 343 347 348 347 346 344 340 335 331 327 319 311 299 284 274 266 262 260 258 257 257 256 254 252 250 249 247 246 243 241 238 237 237 237 235 232 231 231 231 231 229 228 227 228 228 227 227 226 224 222 220 219 220 221 221 221 221 221
272 248 249 280 289 326 323 319 355 11 13 16 16 4 356 3 10 8 1 360 2 359 358 2 1 358 356 350 346 348 348 346 346 347 344 339 335 333 329 324 315 298 281 269 261 257 256 255 255 255 255 253 252 249 247 245 244 242 240 238 237 236 235 234 231 230 231 230 230 228 226 226 226 226 227 226 223 221 218 218 219 219 219 219 219 218
273 264 257 272 272 285 320 333 339 356 7 9 7 4 1 0 3 9 8 355 348 350 355 356 356 3 2 353 349 350 349 346 347 348 345 341 339 337 335 332 326 314 294 277 264 255 253 254 254 254 254 253 252 250 247 245 244 243 241 239 237 237 235 234 233 231 230 230 229 229 227 226 226 227 227 225 222 219 218 218 218 217 216 215 215 216
271 275 275 268 263 276 310 343 347 347 348 351 359 1 359 357 355 359 2 356 349 351 355 351 350 360 360 352 351 352 350 349 349 349 347 344 342 341 340 338 334 326 309 286 270 259 253 252 253 253 252 252 251 249 247 245 244 244 243 240 238 238 236 234 233 232 231 230 229 229 228 227 227 227 227 226 223 221 220 219 218 216 215 214 214 216
283 280 280 272 271 287 312 340 344 345 346 347 354 354 353 354 348 345 354 356 350 350 351 345 342 350 354 352 352 351 350 351 351 352 350 348 345 343 343 345 343 338 326 303 282 266 256 252 252 252 251 250 250 249 247 246 245 244 244 243 240 238 236 234 232 232 231 230 229 229 228 227 227 227 227 226 225 224 223 221 218 216 215 216 216 218
295 282 279 274 280 298 305 321 332 339 341 346 354 350 345 347 343 342 347 346 343 345 344 338 338 347 355 352 350 350 350 351 352 354 353 351 348 345 344 347 348 347 340 322 297 276 264 258 255 254 252 251 250 250 248 246 245 245 245 245 242 240 237 234 232 231 231 230 229 228 228 228 227 227 226 226 226 226 225 222 218 217 217 217 217 219
291 285 280 270 268 281 281 293 315 320 319 330 343 340 338 344 340 335 338 334 335 343 341 334 335 345 351 349 347 348 349 349 350 353 353 351 350 347 344 343 345 346 345 334 313 288 274 267 261 257 254 252 250 249 249 247 246 246 246 245 243 241 239 236 234 232 231 231 229 229 228 228 228 227 226 226 225 224 223 221 219 218 217 217 218 220
302 301 295 280 267 266 272 280 292 303 310 319 328 330 333 339 330 323 326 322 328 341 335 327 330 337 341 343 343 345 347 347 348 350 351 350 350 349 346 342 340 341 342 340 327 304 286 275 267 262 259 256 252 251 250 248 246 246 246 245 243 242 240 237 235 233 231 231 230 229 229 228 228 227 226 226 225 222 222 220 218 218 217 217 218 220
311 309 305 299 294 291 294 299 299 302 307 311 320 325 327 329 323 317 315 312 324 334 324 319 326 329 333 337 339 342 344 344 346 347 347 348 349 349 347 344 341 337 336 338 334 319 299 283 274 268 264 260 256 252 251 249 246 245 245 245 243 241 240 238 236 234 232 232 231 229 229 229 229 227 226 226 225 223 222 221 219 219 219 219 218 220
314 308 302 303 307 307 308 308 302 301 303 306 316 321 319 318 315 313 313 314 322 323 317 322 327 324 327 334 337 339 341 342 344 344 345 346 347 348 347 346 344 339 334 332 331 325 313 296 284 276 268 263 258 254 251 250 247 245 245 244 242 241 240 238 237 236 234 233 232 231 229 229 228 227 226 226 225 224 223 222 221 220 220 220 220 220
314 310 308 305 305 304 303 300 294 294 295 296 306 315 315 313 310 311 313 315 318 317 316 325 327 322 325 332 335 337 339 340 342 343 343 345 346 347 347 346 345 343 338 331 327 325 319 308 298 288 275 265 259 255 254 253 249 246 244 243 242 240 240 239 238 237 235 233 232 232 231 229 228 227 226 226 225 224 224 224 223 222 222 222 221 222
314 311 315 312 306 302 300 295 290 293 294 290 297 310 316 314 310 308 308 310 313 314 315 321 322 320 323 329 333 336 336 337 340 342 342 343 345 347 347 346 345 345 342 335 328 324 320 313 306 301 288 271 261 257 256 255 252 248 245 243 241 240 240 240 239 239 237 234 233 232 232 230 228 227 226 226 225 224 224 224 224 225 225 224 223 224
315 314 318 318 311 306 300 294 291 295 296 288 289 304 317 318 316 311 307 308 309 309 312 318 319 319 324 330 331 332 334 335 337 339 340 342 344 346 348 347 346 347 346 341 333 327 322 316 309 307 300 283 268 260 257 255 253 250 246 243 241 241 242 241 240 240 238 235 233 233 232 230 228 226 225 225 224 223 224 224 224 225 225 225 225 225
315 315 318 315 312 308 301 299 299 298 296 287 283 298 316 322 324 320 315 314 310 309 313 318 319 320 326 329 329 330 333 334 335 338 339 341 344 346 347 349 348 349 350 348 341 333 326 320 313 308 303 292 277 266 260 257 254 250 245 242 241 242 244 243 242 241 239 236 234 232 231 229 228 226 225 224 223 223 224 225 224 224 224 225 225 225
311 314 316 311 310 309 299 302 308 302 293 285 281 292 313 324 328 327 324 320 313 311 315 320 322 325 327 327 327 329 332 333 335 336 337 340 344 345 348 349 350 351 353 352 349 342 332 326 319 310 304 297 286 273 264 260 257 253 247 243 243 245 247 246 245 243 239 237 235 233 231 229 228 226 225 224 223 223 224 225 224 223 224 225 225 226
310 312 317 315 314 313 303 307 313 306 295 290 285 291 312 324 326 326 328 326 318 315 320 324 326 326 326 326 327 329 331 334 334 334 335 340 343 345 348 350 350 353 354 355 355 352 344 335 327 317 307 300 294 284 272 265 262 259 254 251 250 250 251 250 247 244 241 238 236 235 233 230 228 226 225 224 223 223 224 225 224 224 225 225 226 227
311 310 317 319 315 314 314 313 309 301 301 307 302 298 312 321 323 325 328 329 326 322 323 326 327 327 329 330 330 330 332 334 333 333 336 340 343 344 347 349 351 352 355 356 358 359 355 344 331 324 314 302 295 290 283 276 272 267 262 258 256 255 255 254 250 246 242 239 237 236 234 231 229 227 225 225 224 223 224 225 225 226 226 227 227 228
312 312 318 320 314 314 317 313 306 305 311 313 304 303 310 315 318 323 327 331 333 330 329 330 331 332 333 333 332 332 332 333 332 332 338 342 344 344 345 348 351 352 355 358 360 2 2 354 339 330 322 311 301 293 287 285 282 277 270 264 260 257 256 257 255 249 243 240 239 238 235 232 230 227 225 225 225 224 224 225 226 227 227 228 228 229
309 314 318 320 318 317 316 311 311 316 316 307 302 304 310 312 317 323 327 332 337 336 335 335 334 335 335 335 335 333 332 333 331 334 343 345 344 344 345 347 350 351 356 0 2 4 6 2 353 343 330 317 308 299 294 292 287 282 277 270 265 260 257 258 258 254 248 244 240 238 236 234 232 229 226 225 225 225 225 225 227 228 228 229 229 230
301 312 316 318 321 321 317 312 310 310 308 306 306 308 313 316 321 325 324 323 331 338 339 336 336 338 337 336 337 335 333 334 333 338 346 346 343 344 345 345 348 351 355 0 3 4 4 2 358 351 339 326 316 307 302 299 294 288 282 275 268 263 258 257 257 256 253 247 242 239 238 236 234 232 228 226 227 227 226 226 227 228 229 229 229 230
294 306 313 316 319 320 318 316 313 310 312 318 316 316 320 319 320 324 321 319 329 337 339 338 338 339 338 338 339 337 336 337 337 339 344 344 342 342 343 343 346 349 353 358 1 2 2 0 357 351 344 336 327 318 310 307 303 297 290 281 271 263 257 256 256 255 254 250 245 242 240 238 237 234 231 228 228 229 228 228 229 229 229 230 230 230
287 298 305 308 310 311 312 313 313 313 318 322 320 319 318 315 318 321 317 319 334 338 339 339 338 338 339 339 338 339 340 340 339 339 340 340 339 339 340 340 343 347 351 354 357 359 0 1 360 355 349 341 334 326 317 313 312 308 300 288 276 265 257 255 255 255 255 252 248 243 241 239 239 237 234 230 229 230 230 230 231 231 231 231 230 229
284 294 297 299 303 306 307 308 309 310 313 316 318 320 317 317 320 317 313 324 335 337 338 339 337 337 339 338 338 340 342 340 337 336 336 336 336 337 338 338 341 345 349 351 354 355 357 0 2 0 356 349 341 333 325 320 318 317 311 298 284 271 260 255 255 255 255 253 249 244 241 240 238 238 236 232 230 231 231 231 232 233 233 232 231 230
291 293 293 297 300 301 301 303 307 311 313 313 315 318 319 319 317 315 320 327 330 332 336 336 335 336 337 337 337 338 339 338 335 334 335 336 337 337 337 338 340 344 347 349 351 353 354 356 360 1 360 355 348 341 334 327 323 322 319 311 297 281 266 260 259 258 257 255 251 246 243 240 238 237 236 234 232 231 231 231 232 233 233 234 233 231
293 294 293 295 297 300 302 303 307 314 319 319 320 321 317 317 320 322 326 327 326 329 334 333 332 335 335 335 335 334 333 334 333 334 336 338 338 338 337 338 340 343 346 348 349 351 352 353 354 357 359 358 353 348 342 335 330 326 321 317 309 293 277 270 267 263 261 258 253 248 244 241 239 237 236 234 233 232 232 233 234 234 233 233 235 234
293 295 296 295 297 302 304 302 306 316 322 318 323 324 313 313 324 326 324 325 327 328 330 330 331 333 333 332 332 331 331 332 333 335 337 338 339 339 338 338 340 342 345 347 348 350 351 350 350 352 355 357 356 353 349 344 339 332 325 318 311 298 285 277 272 267 263 260 256 252 247 243 241 238 236 235 234 233 233 233 234 233 231 230 233 234
288 288 294 300 300 299 299 303 314 326 328 308 309 317 313 310 319 322 320 322 327 327 327 329 330 330 329 329 329 330 331 332 334 335 335 336 338 338 338 339 340 341 343 345 347 348 349 349 349 349 350 354 356 356 355 352 347 341 335 325 312 299 289 284 279 273 267 262 258 256 252 247 243 240 237 236 235 235 233 232 232 232 230 227 229 231
288 289 295 300 296 293 296 303 309 315 314 306 303 307 309 308 312 317 318 319 323 325 326 327 327 328 328 327 327 328 330 332 333 334 335 336 336 337 337 338 339 340 341 343 344 345 347 347 347 347 348 350 354 356 357 355 351 347 343 335 321 306 295 288 283 279 274 268 263 259 256 252 248 243 241 239 238 237 235 233 232 233 231 228 228 230
288 289 292 295 296 296 295 295 295 297 300 302 301 302 306 308 310 313 315 317 320 322 323 323 325 327 327 326 326 327 329 330 330 331 334 335 335 336 337 337 338 338 339 340 341 343 344 345 346 347 347 348 350 352 353 354 353 351 348 344 335 322 308 296 288 282 278 275 270 265 261 257 253 249 246 243 240 238 236 235 234 233 232 230 229 230
282 280 284 288 292 298 300 298 299 299 298 300 302 301 302 304 305 309 313 317 319 320 320 322 323 324 325 326 327 327 328 329 329 330 332 333 334 335 336 337 338 338 338 339 340 341 342 344 344 345 346 347 348 349 349 350 351 350 348 346 344 337 325 312 301 292 285 280 275 271 268 264 259 255 251 247 243 241 238 236 235 234 233 232 232 232
287 284 284 285 285 289 294 296 298 297 294 295 297 299 300 300 302 304 308 314 316 317 318 321 323 324 325 326 327 327 327 328 330 331 331 332 332 334 335 336 336 337 338 339 340 340 341 342 342 343 343 344 344 345 344 345 345 346 345 344 344 342 336 327 317 306 298 291 283 277 273 269 265 261 256 251 248 245 242 240 238 237 236 235 234 234
285 283 285 289 289 289 290 292 293 293 293 292 292 294 298 299 300 301 304 308 311 314 318 321 323 324 325 326 327 327 326 328 330 330 330 330 331 332 333 334 335 336 337 337 338 339 340 340 341 341 341 340 340 340 340 339 340 341 342 341 339 339 338 334 328 319 310 302 294 287 280 274 270 266 262 258 254 249 246 244 242 241 239 238 237 236
276 279 283 286 287 288 290 292 293 294 294 293 294 296 296 295 296 297 299 303 307 312 318 322 323 322 322 324 326 327 326 328 330 330 329 330 331 331 332 333 333 334 334 334 334 335 337 338 339 339 339 339 338 337 337 337 336 337 338 337 336 335 334 331 329 326 321 314 306 298 291 283 278 272 267 263 259 255 251 248 246 244 242 241 240 239
274 278 281 281 283 287 291 292 292 293 292 292 295 297 294 291 291 292 294 299 306 311 316 320 321 320 321 322 325 326 327 328 329 329 329 329 330 330 331 331 332 332 332 332 332 333 334 335 335 336 337 337 336 336 335 335 334 335 335 334 333 332 331 329 326 324 323 321 318 311 302 294 287 282 275 268 262 259 257 254 251 248 246 243 242 241